Change the Weather History Date:

Monday, July 8, 2013

  Actual Average (KFLO) Record (KFLO)
Temperature  
Mean Temperature 78 °F 81 °F  
Max Temperature 86 °F 91 °F 105 °F (1977)
Min Temperature 71 °F 71 °F 60 °F (1951)
Degree Days  
Heating Degree Days 0 0  
Month to date heating degree days 0  
Since 1 June heating degree days 1  
Since 1 July heating degree days 0  
Cooling Degree Days 14 16  
Month to date cooling degree days 128  
Year to date cooling degree days 832  
Since 1 June cooling degree days 525  
Growing Degree Days 28 (Base 50)    
Moisture  
Dew Point 73 °F    
Average Humidity 89    
Maximum Humidity 100    
Minimum Humidity 58    
Precipitation  
Precipitation 0.08 in 0.15 in 0.79 in (2011)
Month to date precipitation 1.18  
Year to date precipitation 21.16  
Sea Level Pressure  
Sea Level Pressure 30.16 in    
Wind  
Wind Speed - (North)    
Max Wind Speed -    
Max Gust Speed -    
Visibility 10 miles    
Events Rain , Thunderstorm    
T = Trace of Precipitation, MM = Missing Value Source: NWS Daily Summary

Daily Weather History Graph

Daily Weather History Graph

Search for Another Location

Airport or City:

Trip Planner

Search our weather history database for the weather conditions in past years. The results will help you decide how hot, cold, wet, or windy it might be!

Date:

Astronomy

Jul. 08, 2013 Rise Set
Actual Time 6:13 AM EDT 8:35 PM EDT
Civil Twilight 5:44 AM EDT 9:04 PM EDT
Nautical Twilight 5:08 AM EDT 9:40 PM EDT
Astronomical Twilight 4:29 AM EDT 10:19 PM EDT
Moon 6:38 AM EDT (7/8) 8:41 PM EDT (7/8)
Length of Visible Light 15h 20m
Length of Day
14h 21m
New Moon, 0% of the Moon is Illuminated
Jul 8
New Moon
Jul 15
First Quarter
Jul 22
Full
Jul 29
Last Quarter
Aug 6
New

Hourly Weather History & Observations

Time (EDT) Temp. Heat Index Dew Point Humidity Pressure Visibility Wind Dir Wind Speed Gust Speed Precip Events Conditions
12:15 AM 75.2 °F - 73.4 °F 94% 30.16 in 10.0 mi North - - N/A   Clear
12:35 AM 75.2 °F - 73.4 °F 94% 30.16 in 10.0 mi North - - N/A   Clear
12:55 AM 75.2 °F - 73.4 °F 94% 30.16 in 10.0 mi North - - N/A   Clear
1:15 AM 75.2 °F - 73.4 °F 94% 30.16 in 10.0 mi North - - N/A   Clear
1:35 AM 73.4 °F - 73.4 °F 100% 30.16 in 10.0 mi North - - N/A   Scattered Clouds
1:55 AM 73.4 °F - 73.4 °F 100% 30.16 in 10.0 mi North - - N/A   Scattered Clouds
2:15 AM 73.4 °F - 71.6 °F 94% 30.16 in 10.0 mi North - - N/A   Clear
2:35 AM 73.4 °F - 71.6 °F 94% 30.16 in 10.0 mi North - - N/A   Clear
2:55 AM 73.4 °F - 71.6 °F 94% 30.16 in 10.0 mi North - - N/A   Clear
3:15 AM 73.4 °F - 71.6 °F 94% 30.16 in 10.0 mi North - - N/A   Clear
3:35 AM 73.4 °F - 71.6 °F 94% 30.15 in 10.0 mi North - - N/A   Clear
3:55 AM 73.4 °F - 71.6 °F 94% 30.15 in 10.0 mi North - - N/A   Partly Cloudy
4:15 AM 73.4 °F - 71.6 °F 94% 30.15 in 10.0 mi North - - N/A   Scattered Clouds
4:35 AM 73.4 °F - 71.6 °F 94% 30.15 in 10.0 mi North - - N/A   Scattered Clouds
4:55 AM 73.4 °F - 71.6 °F 94% 30.15 in 10.0 mi North - - N/A   Clear
5:15 AM 71.6 °F - 71.6 °F 100% 30.15 in 10.0 mi North - - N/A   Clear
5:35 AM 71.6 °F - 71.6 °F 100% 30.16 in 10.0 mi North - - N/A   Clear
5:55 AM 71.6 °F - 71.6 °F 100% 30.15 in 10.0 mi North - - N/A   Clear
6:15 AM 71.6 °F - 71.6 °F 100% 30.15 in 10.0 mi North - - N/A   Clear
6:35 AM 71.6 °F - 71.6 °F 100% 30.16 in 10.0 mi North - - N/A   Clear
6:55 AM 71.6 °F - 71.6 °F 100% 30.16 in 10.0 mi North - - N/A   Clear
7:15 AM 73.4 °F - 71.6 °F 94% 30.17 in 10.0 mi North - - N/A   Clear
7:35 AM 73.4 °F - 73.4 °F 100% 30.18 in 10.0 mi North - - N/A   Partly Cloudy
7:55 AM 73.4 °F - 73.4 °F 100% 30.18 in 10.0 mi North - - N/A   Clear
8:15 AM 73.4 °F - 73.4 °F 100% 30.18 in 10.0 mi North - - N/A   Clear
8:35 AM 75.2 °F - 73.4 °F 94% 30.18 in 10.0 mi North - - N/A   Clear
8:55 AM 75.2 °F - 73.4 °F 94% 30.18 in 10.0 mi North - - N/A   Clear
9:15 AM 77.0 °F - 73.4 °F 89% 30.19 in 10.0 mi North - - N/A   Scattered Clouds
9:35 AM 77.0 °F - 73.4 °F 89% 30.19 in 10.0 mi North - - N/A   Scattered Clouds
9:55 AM 77.0 °F - 73.4 °F 89% 30.19 in 10.0 mi North - - N/A   Partly Cloudy
10:15 AM 77.0 °F - 73.4 °F 89% 30.19 in 10.0 mi North - - N/A   Clear
10:35 AM 80.6 °F 85.4 °F 73.4 °F 79% 30.19 in 10.0 mi North - - N/A   Clear
10:55 AM 80.6 °F 85.4 °F 73.4 °F 79% 30.19 in 10.0 mi North - - N/A   Clear
11:15 AM 82.4 °F 88.2 °F 73.4 °F 74% 30.19 in 10.0 mi North - - N/A   Partly Cloudy
11:35 AM 82.4 °F 88.2 °F 73.4 °F 74% 30.20 in 10.0 mi North - - N/A   Partly Cloudy
11:55 AM 82.4 °F 87.2 °F 71.6 °F 70% 30.19 in 10.0 mi North - - N/A   Scattered Clouds
12:15 PM 84.2 °F 89.6 °F 71.6 °F 66% 30.19 in 10.0 mi North - - N/A   Clear
12:35 PM 84.2 °F 89.6 °F 71.6 °F 66% 30.18 in 10.0 mi North - - N/A   Partly Cloudy
12:55 PM 84.2 °F 89.6 °F 71.6 °F 66% 30.18 in 10.0 mi North - - N/A   Scattered Clouds
1:15 PM 86.0 °F 91.8 °F 71.6 °F 62% 30.18 in 10.0 mi North - - N/A   Partly Cloudy
1:35 PM 86.0 °F 91.8 °F 71.6 °F 62% 30.17 in 10.0 mi North - - N/A   Clear
1:55 PM 86.0 °F 90.4 °F 69.8 °F 58% 30.17 in 10.0 mi North - - N/A   Scattered Clouds
2:15 PM 86.0 °F 91.8 °F 71.6 °F 62% 30.16 in 10.0 mi North - - N/A   Partly Cloudy
2:35 PM 86.0 °F 90.4 °F 69.8 °F 58% 30.15 in 10.0 mi North - - N/A   Clear
2:55 PM 86.0 °F 91.8 °F 71.6 °F 62% 30.15 in 10.0 mi North - - N/A   Scattered Clouds
3:15 PM 86.0 °F 91.8 °F 71.6 °F 62% 30.14 in 10.0 mi North - - N/A Thunderstorm Partly Cloudy
3:35 PM 84.2 °F 89.6 °F 71.6 °F 66% 30.13 in 10.0 mi North - - N/A   Mostly Cloudy
3:55 PM 80.6 °F 85.4 °F 73.4 °F 79% 30.13 in 10.0 mi North - - N/A Thunderstorm Overcast
4:15 PM 80.6 °F 85.4 °F 73.4 °F 79% 30.15 in 10.0 mi North - - N/A Thunderstorm Mostly Cloudy
4:35 PM 75.2 °F - 73.4 °F 94% 30.17 in - North - - 0.05 in Rain , Thunderstorm Thunderstorms and Rain
4:55 PM 73.4 °F - 73.4 °F 100% 30.15 in - North - - 0.08 in Rain , Thunderstorm Light Rain
5:15 PM 75.2 °F - 75.2 °F 100% 30.14 in - North - - N/A Rain Light Rain
5:35 PM 77.0 °F - 75.2 °F 94% 30.13 in - North - - N/A Rain Light Rain
5:55 PM 80.6 °F 86.2 °F 75.2 °F 84% 30.13 in - North - - N/A Rain Light Rain
6:15 PM 80.6 °F 86.2 °F 75.2 °F 84% 30.12 in - North - - N/A Rain Light Rain
6:35 PM 77.0 °F - 75.2 °F 94% 30.13 in - North - - N/A Rain Light Rain
6:55 PM 77.0 °F - 75.2 °F 94% 30.13 in - North - - N/A Rain Light Rain
7:15 PM 77.0 °F - 75.2 °F 94% 30.13 in - North - - N/A Rain Light Rain
7:35 PM 77.0 °F - 75.2 °F 94% 30.13 in - North - - N/A Rain Light Rain
7:55 PM 77.0 °F - 75.2 °F 94% 30.13 in - North - - N/A Rain Light Rain
8:15 PM 77.0 °F - 75.2 °F 94% 30.14 in - North - - N/A Rain Light Rain
8:35 PM 77.0 °F - 75.2 °F 94% 30.14 in - North - - N/A Rain Light Rain
8:55 PM 77.0 °F - 75.2 °F 94% 30.15 in - North - - N/A Rain Light Rain
9:15 PM 75.2 °F - 75.2 °F 100% 30.15 in - North - - N/A Rain Light Rain
9:35 PM 75.2 °F - 75.2 °F 100% 30.16 in - North - - N/A Rain Light Rain
9:55 PM 75.2 °F - 75.2 °F 100% 30.16 in - North - - N/A Rain Light Rain
10:15 PM 75.2 °F - 75.2 °F 100% 30.16 in - North - - N/A Rain Light Rain
10:35 PM 73.4 °F - 73.4 °F 100% 30.16 in - North - - N/A Rain Light Rain
10:55 PM 73.4 °F - 73.4 °F 100% 30.17 in - North - - N/A Rain Light Rain
11:15 PM 73.4 °F - 73.4 °F 100% 30.18 in - North - - N/A Rain Light Rain
11:35 PM 73.4 °F - 73.4 °F 100% 30.18 in - North - - N/A Rain Light Rain
11:55 PM 73.4 °F - 73.4 °F 100% 30.18 in - North - - N/A Rain Light Rain